SPACEBEE-34 (46933 NORAD) Tracking and Keplerian Element Data
This shows tracking and keplerian element data for the satellite.
Feedback or suggestion? Click here.
Element | Value |
Catalog | 46933 |
Name | SPACEBEE-34 |
Epoch Orbit | 935 |
Epoch Day | 20.62140565 |
Epoch Year | 2021 |
RAAN | 159.9996 |
Inclination | 97.3745 |
Eccentricity | 0.001737 |
Argument of Perigee | 85.5438 |
Mean Anonmoly | 274.778 |
Mean Motion | 15.21776285 |
Decay Rate | 3.815E-05 |
L1 | 1 46933U 20085E 21020.62140565 .00003815 00000-0 17059-3 0 9996 |
L2 | 2 46933 97.3745 159.9996 0017370 85.5438 274.7780 15.21776285 9357 |
Live tracking and technical data element details for SPACEBEE-34 (NORAD 46933). SPACEBEE-34 can be tracked NOW for your location showing map with azimuth and elevation plus other details from your city location.
Track the satellite on the map from your city or location and see movement details for azimuth, elevation, latitude, longitude, range, height, and movement on the map or in text.
IsCatalogInMostPopularTable: catalog: 46933, numindb: 23
Update: records affected: 1
GetName: 46933 SPACEBEE-34
Hit Count: updated at: Fri, 22 Jan 2021 20:10:33 GMT